Retour au catalogue

TRANSIT 5B-1

ActifNavigationPO
NORAD 670·PAYLOAD·🇺🇸 United States

Lancé Sep 28, 1963 depuis Vandenberg Space Force Base

Loading…

Prochains Passages (prochaines 24 heures)

TLE

FraisSource: Space-Track

Époque: Sep 14, 2026, 10:38 UTC

1 00670U 63038B   26257.44344707  .00000062  00000-0  88346-4 0  9999
2 00670  89.9666 332.5897 0042997 137.0658 223.3859 13.44690279 86187

Suivez TRANSIT 5B-1 en temps réel avec AllMySat

Download on the App Store